Location: Newark
(48.8604°N, 2.3376°E)
Time: 10:41:00
(UTC+00:00)

Envisat - Pass Details

Date: 04 October 2021
Orbit: 764 x 766 km, 98.2° (Epoch: 26 October)

Event Time Altitude Azimuth Distance (km) Brightness Sun altitude
Rises 03:22:27 0° 33° (NNE) 3,242 7.1 -25.3°
Reaches altitude 10° 03:27:05 10° 72° (ENE) 2,307 6.5 -24.6°
Maximum altitude 03:28:07 11° 84° (E) 2,265 6.4 -24.4°
Drops below altitude 10° 03:29:10 10° 96° (E) 2,303 6.3 -24.3°
Sets 03:33:45 0° 135° (SE) 3,220 6.5 -23.6°
